Terminal Aerodrome Forecast
Issued by NWS Boston, MA

Home | Current Version | Previous Version | Text Only | Print | Product List | Glossary On
Versions: 1 2 3 4 5 6 7 8 9 10 11 12 13 14 15 16 17 18 19 20 21 22 23 24 25 26 27 28 29 30 31 32 33 34 35 36 37 38 39 40 41
000
FTUS41 KBOX 202324
TAFPVD
TAF
KPVD 202324Z 2100/2124 02005KT P6SM OVC040
      TEMPO 2100/2102 4SM -SHSN OVC020
     FM210500 VRB03KT P6SM OVC020
     FM212300 03006KT P6SM OVC025=

USA.gov is the U.S. government's official web portal to all federal, state and local government web resources and services.